Time,TemperatureF,DewpointF,PressureIn,WindDirection,WindDirectionDegrees,WindSpeedMPH,WindSpeedGustMPH,Humidity,HourlyPrecipIn,Conditions,Clouds,dailyrainin,SoftwareType,DateUTC
2013-06-11 00:03:00,61.0,59.0,-100.00,SW,230,7.0,12.0,91,0.00,,,-99.99,,2013-06-11 04:03:00,
2013-06-11 00:12:00,62.0,59.0,-100.00,WSW,250,6.0,12.0,90,0.00,,,-99.99,,2013-06-11 04:12:00,
2013-06-11 00:23:00,62.0,59.0,-100.00,SW,230,6.0,9.0,90,0.00,,,-99.99,,2013-06-11 04:23:00,
2013-06-11 00:33:00,62.0,59.0,-100.00,SW,230,4.0,9.0,90,0.00,,,-99.99,,2013-06-11 04:33:00,
2013-06-11 00:42:00,62.0,59.0,-100.00,SW,225,4.0,7.0,91,0.00,,,-99.99,,2013-06-11 04:42:00,
2013-06-11 00:52:00,62.0,59.0,-100.00,SW,230,4.0,9.0,91,0.00,,,-99.99,,2013-06-11 04:52:00,
2013-06-11 01:02:00,62.0,60.0,-100.00,SW,220,4.0,8.0,91,0.00,,,-99.99,,2013-06-11 05:02:00,
2013-06-11 01:12:00,62.0,60.0,-100.00,SW,235,7.0,10.0,92,0.00,,,-99.99,,2013-06-11 05:12:00,
2013-06-11 01:22:00,63.0,60.0,-100.00,SW,235,7.0,11.0,92,0.00,,,-99.99,,2013-06-11 05:22:00,
2013-06-11 01:32:00,63.0,60.0,-100.00,SW,235,4.0,12.0,92,0.00,,,-99.99,,2013-06-11 05:32:00,
2013-06-11 01:42:00,63.0,60.0,-100.00,WSW,245,7.0,12.0,92,0.00,,,-99.99,,2013-06-11 05:42:00,
2013-06-11 01:52:00,63.0,60.0,-100.00,WSW,240,6.0,8.0,92,0.00,,,-99.99,,2013-06-11 05:52:00,
2013-06-11 02:02:00,63.0,60.0,-100.00,WSW,245,5.0,9.0,92,0.00,,,-99.99,,2013-06-11 06:02:00,
2013-06-11 02:12:00,63.0,60.0,-100.00,WSW,250,5.0,9.0,92,0.00,,,-99.99,,2013-06-11 06:12:00,
2013-06-11 02:22:00,63.0,60.0,-100.00,WSW,245,4.0,7.0,92,0.00,,,-99.99,,2013-06-11 06:22:00,
2013-06-11 02:32:00,63.0,61.0,-100.00,SW,230,6.0,10.0,92,0.00,,,-99.99,,2013-06-11 06:32:00,
2013-06-11 02:42:00,63.0,61.0,-100.00,WSW,250,6.0,12.0,92,0.00,,,-99.99,,2013-06-11 06:42:00,
2013-06-11 02:52:00,63.0,61.0,-100.00,SW,220,6.0,12.0,92,0.00,,,-99.99,,2013-06-11 06:52:00,
2013-06-11 03:02:00,63.0,61.0,-100.00,WSW,245,7.0,12.0,92,0.00,,,-99.99,,2013-06-11 07:02:00,
2013-06-11 03:13:00,63.0,61.0,-100.00,WSW,245,9.0,14.0,92,0.00,,,-99.99,,2013-06-11 07:13:00,
2013-06-11 03:22:00,63.0,61.0,-100.00,SW,235,7.0,10.0,92,0.00,,,-99.99,,2013-06-11 07:22:00,
2013-06-11 03:32:00,63.0,61.0,-100.00,WSW,245,6.0,12.0,92,0.00,,,-99.99,,2013-06-11 07:32:00,
2013-06-11 03:42:00,63.0,61.0,-100.00,WSW,245,6.0,11.0,92,0.00,,,-99.99,,2013-06-11 07:42:00,
2013-06-11 03:52:00,63.0,61.0,-100.00,WSW,250,7.0,12.0,92,0.00,,,-99.99,,2013-06-11 07:52:00,
2013-06-11 04:02:00,63.0,61.0,-100.00,West,265,9.0,12.0,92,0.00,,,-99.99,,2013-06-11 08:02:00,
2013-06-11 04:12:00,63.0,60.0,-100.00,WSW,240,9.0,13.0,92,0.00,,,-99.99,,2013-06-11 08:12:00,
2013-06-11 04:22:00,63.0,60.0,-100.00,WSW,240,10.0,17.0,92,0.00,,,-99.99,,2013-06-11 08:22:00,
2013-06-11 04:32:00,63.0,60.0,-100.00,WSW,245,9.0,12.0,92,0.00,,,-99.99,,2013-06-11 08:32:00,
2013-06-11 04:42:00,63.0,60.0,-100.00,WSW,255,7.0,14.0,91,0.00,,,-99.99,,2013-06-11 08:42:00,
2013-06-11 04:52:00,63.0,60.0,-100.00,WSW,245,7.0,14.0,91,0.00,,,-99.99,,2013-06-11 08:52:00,
2013-06-11 05:02:00,63.0,60.0,-100.00,WSW,255,7.0,12.0,91,0.00,,,-99.99,,2013-06-11 09:02:00,
2013-06-11 05:12:00,63.0,60.0,-100.00,West,260,7.0,12.0,91,0.00,,,-99.99,,2013-06-11 09:12:00,
2013-06-11 05:22:00,63.0,60.0,-100.00,West,260,6.0,13.0,91,0.00,,,-99.99,,2013-06-11 09:22:00,
2013-06-11 05:33:00,63.0,60.0,-100.00,WSW,255,6.0,12.0,91,0.00,,,-99.99,,2013-06-11 09:33:00,
2013-06-11 05:43:00,63.0,60.0,-100.00,WSW,255,6.0,16.0,91,0.00,,,-99.99,,2013-06-11 09:43:00,
2013-06-11 05:53:00,63.0,60.0,-100.00,WSW,250,6.0,11.0,91,0.00,,,-99.99,,2013-06-11 09:53:00,
2013-06-11 06:03:00,63.0,60.0,-100.00,West,275,6.0,9.0,91,0.00,,,-99.99,,2013-06-11 10:03:00,
2013-06-11 06:12:00,63.0,60.0,-100.00,WSW,255,3.0,9.0,91,0.00,,,-99.99,,2013-06-11 10:12:00,
2013-06-11 06:23:00,63.0,60.0,-100.00,WSW,255,5.0,8.0,91,0.00,,,-99.99,,2013-06-11 10:23:00,
2013-06-11 06:33:00,63.0,60.0,-100.00,West,265,4.0,9.0,91,0.00,,,-99.99,,2013-06-11 10:33:00,
2013-06-11 06:42:00,63.0,60.0,-100.00,WSW,250,6.0,9.0,91,0.00,,,-99.99,,2013-06-11 10:42:00,
2013-06-11 06:52:00,63.0,60.0,-100.00,West,260,7.0,11.0,91,0.00,,,-99.99,,2013-06-11 10:52:00,
2013-06-11 07:02:00,63.0,61.0,-100.00,WSW,250,7.0,11.0,91,0.00,,,-99.99,,2013-06-11 11:02:00,
2013-06-11 07:12:00,63.0,61.0,-100.00,SW,230,6.0,12.0,91,0.00,,,-99.99,,2013-06-11 11:12:00,
2013-06-11 07:22:00,63.0,61.0,-100.00,West,265,6.0,11.0,91,0.00,,,-99.99,,2013-06-11 11:22:00,
2013-06-11 07:32:00,63.0,61.0,-100.00,WSW,240,6.0,11.0,91,0.00,,,-99.99,,2013-06-11 11:32:00,
2013-06-11 07:42:00,63.0,61.0,-100.00,WSW,250,7.0,12.0,91,0.00,,,-99.99,,2013-06-11 11:42:00,
2013-06-11 07:52:00,63.0,61.0,-100.00,West,260,7.0,12.0,91,0.00,,,-99.99,,2013-06-11 11:52:00,
2013-06-11 08:02:00,63.0,61.0,-100.00,West,260,5.0,12.0,91,0.00,,,-99.99,,2013-06-11 12:02:00,
2013-06-11 08:12:00,63.0,61.0,-100.00,WSW,255,7.0,10.0,91,0.00,,,-99.99,,2013-06-11 12:12:00,
2013-06-11 08:22:00,64.0,61.0,-100.00,West,260,7.0,11.0,91,0.00,,,-99.99,,2013-06-11 12:22:00,
2013-06-11 08:32:00,64.0,61.0,-100.00,West,265,6.0,11.0,91,0.00,,,-99.99,,2013-06-11 12:32:00,
2013-06-11 08:42:00,64.0,61.0,-100.00,West,260,6.0,12.0,91,0.00,,,-99.99,,2013-06-11 12:42:00,
2013-06-11 08:52:00,64.0,62.0,-100.00,West,265,7.0,12.0,91,0.00,,,-99.99,,2013-06-11 12:52:00,
2013-06-11 09:02:00,64.0,62.0,-100.00,West,270,6.0,11.0,91,0.00,,,-99.99,,2013-06-11 13:02:00,
2013-06-11 09:12:00,64.0,62.0,-100.00,WNW,285,7.0,11.0,91,0.00,,,-99.99,,2013-06-11 13:12:00,
2013-06-11 09:22:00,65.0,62.0,-100.00,West,275,6.0,9.0,90,0.00,,,-99.99,,2013-06-11 13:22:00,
2013-06-11 09:32:00,65.0,62.0,-100.00,West,265,7.0,10.0,90,0.00,,,-99.99,,2013-06-11 13:32:00,
2013-06-11 09:42:00,65.0,62.0,-100.00,WSW,245,7.0,12.0,89,0.00,,,-99.99,,2013-06-11 13:42:00,
2013-06-11 09:52:00,65.0,62.0,-100.00,West,275,6.0,16.0,89,0.00,,,-99.99,,2013-06-11 13:52:00,
2013-06-11 10:02:00,65.0,62.0,-100.00,West,275,7.0,11.0,89,0.00,,,-99.99,,2013-06-11 14:02:00,
2013-06-11 10:12:00,65.0,62.0,-100.00,West,265,8.0,12.0,89,0.00,,,-99.99,,2013-06-11 14:12:00,
2013-06-11 10:22:00,65.0,62.0,-100.00,West,275,7.0,11.0,89,0.00,,,-99.99,,2013-06-11 14:22:00,
2013-06-11 10:32:00,65.0,62.0,-100.00,West,265,8.0,11.0,89,0.00,,,-99.99,,2013-06-11 14:32:00,
2013-06-11 10:42:00,65.0,62.0,-100.00,West,265,6.0,11.0,90,0.00,,,-99.99,,2013-06-11 14:42:00,
2013-06-11 10:52:00,65.0,62.0,-100.00,West,280,6.0,11.0,90,0.00,,,-99.99,,2013-06-11 14:52:00,
2013-06-11 11:02:00,65.0,62.0,-100.00,West,275,8.0,14.0,90,0.00,,,-99.99,,2013-06-11 15:02:00,
2013-06-11 11:12:00,66.0,63.0,-100.00,NW,315,7.0,12.0,90,0.00,,,-99.99,,2013-06-11 15:12:00,
2013-06-11 11:22:00,66.0,63.0,-100.00,NW,320,7.0,11.0,88,0.00,,,-99.99,,2013-06-11 15:22:00,
2013-06-11 11:33:00,66.0,62.0,-100.00,NW,305,4.0,12.0,88,0.00,,,-99.99,,2013-06-11 15:33:00,
2013-06-11 11:43:00,66.0,62.0,-100.00,WNW,300,7.0,14.0,86,0.00,,,-99.99,,2013-06-11 15:43:00,
2013-06-11 11:53:00,67.0,62.0,-100.00,NW,320,9.0,12.0,84,0.00,,,-99.99,,2013-06-11 15:53:00,
2013-06-11 12:03:00,67.0,62.0,-100.00,WNW,285,7.0,11.0,84,0.00,,,-99.99,,2013-06-11 16:03:00,
2013-06-11 12:12:00,69.0,63.0,-100.00,NW,305,9.0,12.0,81,0.00,,,-99.99,,2013-06-11 16:12:00,
2013-06-11 12:22:00,69.0,62.0,-100.00,West,275,6.0,12.0,79,0.00,,,-99.99,,2013-06-11 16:22:00,
2013-06-11 12:33:00,69.0,62.0,-100.00,NW,305,7.0,16.0,76,0.00,,,-99.99,,2013-06-11 16:33:00,
2013-06-11 12:42:00,70.0,62.0,-100.00,NW,310,7.0,16.0,76,0.00,,,-99.99,,2013-06-11 16:42:00,
2013-06-11 12:52:00,70.0,63.0,-100.00,NW,305,8.0,13.0,76,0.00,,,-99.99,,2013-06-11 16:52:00,
2013-06-11 13:02:00,70.0,62.0,-100.00,WNW,285,8.0,14.0,76,0.00,,,-99.99,,2013-06-11 17:02:00,
2013-06-11 13:12:00,71.0,61.0,-100.00,WNW,295,10.0,22.0,70,0.00,,,-99.99,,2013-06-11 17:12:00,
2013-06-11 13:22:00,71.0,63.0,-100.00,WNW,300,6.0,14.0,76,0.00,,,-99.99,,2013-06-11 17:22:00,
2013-06-11 13:32:00,71.0,61.0,-100.00,NW,320,10.0,16.0,71,0.00,,,-99.99,,2013-06-11 17:32:00,
2013-06-11 13:43:00,71.0,60.0,-100.00,West,280,11.0,17.0,70,0.00,,,-99.99,,2013-06-11 17:43:00,
2013-06-11 13:52:00,73.0,63.0,-100.00,NW,310,6.0,12.0,70,0.00,,,-99.99,,2013-06-11 17:52:00,
2013-06-11 14:02:00,73.0,61.0,-100.00,West,275,9.0,15.0,67,0.00,,,-99.99,,2013-06-11 18:02:00,
2013-06-11 14:12:00,73.0,62.0,-100.00,West,280,7.0,17.0,68,0.00,,,-99.99,,2013-06-11 18:12:00,
2013-06-11 14:22:00,73.0,62.0,-100.00,WNW,300,10.0,15.0,67,0.00,,,-99.99,,2013-06-11 18:22:00,
2013-06-11 14:33:00,72.0,62.0,-100.00,WNW,285,9.0,16.0,69,0.00,,,-99.99,,2013-06-11 18:33:00,
2013-06-11 14:42:00,73.0,61.0,-100.00,NNW,340,6.0,14.0,66,0.00,,,-99.99,,2013-06-11 18:42:00,
2013-06-11 14:52:00,74.0,62.0,-100.00,West,265,8.0,14.0,65,0.00,,,-99.99,,2013-06-11 18:52:00,
2013-06-11 15:02:00,75.0,61.0,-100.00,WNW,295,9.0,19.0,62,0.00,,,-99.99,,2013-06-11 19:02:00,
2013-06-11 15:12:00,75.0,62.0,-100.00,NW,305,6.0,16.0,64,0.00,,,-99.99,,2013-06-11 19:12:00,
2013-06-11 15:22:00,74.0,62.0,-100.00,WNW,285,7.0,18.0,65,0.00,,,-99.99,,2013-06-11 19:22:00,
2013-06-11 15:33:00,75.0,61.0,-100.00,West,280,9.0,16.0,62,0.00,,,-99.99,,2013-06-11 19:33:00,
2013-06-11 15:42:00,76.0,61.0,-100.00,WNW,290,7.0,17.0,61,0.00,,,-99.99,,2013-06-11 19:42:00,
2013-06-11 15:52:00,75.0,60.0,-100.00,WNW,300,12.0,19.0,58,0.00,,,-99.99,,2013-06-11 19:52:00,
2013-06-11 16:03:00,75.0,61.0,-100.00,WNW,295,9.0,14.0,62,0.00,,,-99.99,,2013-06-11 20:03:00,
2013-06-11 16:12:00,76.0,61.0,-100.00,West,280,7.0,13.0,58,0.00,,,-99.99,,2013-06-11 20:12:00,
2013-06-11 16:22:00,75.0,61.0,-100.00,West,280,9.0,16.0,61,0.00,,,-99.99,,2013-06-11 20:22:00,
2013-06-11 16:32:00,76.0,60.0,-100.00,WNW,290,11.0,17.0,57,0.00,,,-99.99,,2013-06-11 20:32:00,
2013-06-11 16:42:00,76.0,61.0,-100.00,WNW,300,8.0,19.0,59,0.00,,,-99.99,,2013-06-11 20:42:00,
2013-06-11 16:52:00,76.0,60.0,-100.00,West,280,9.0,14.0,58,0.00,,,-99.99,,2013-06-11 20:52:00,
2013-06-11 17:02:00,76.0,61.0,-100.00,NW,305,9.0,17.0,59,0.00,,,-99.99,,2013-06-11 21:02:00,
2013-06-11 17:12:00,77.0,61.0,-100.00,West,280,7.0,16.0,58,0.00,,,-99.99,,2013-06-11 21:12:00,
2013-06-11 17:22:00,77.0,62.0,-100.00,NW,315,6.0,12.0,58,0.00,,,-99.99,,2013-06-11 21:22:00,
2013-06-11 17:33:00,76.0,62.0,-100.00,WNW,300,6.0,14.0,60,0.00,,,-99.99,,2013-06-11 21:33:00,
2013-06-11 17:42:00,77.0,62.0,-100.00,WNW,285,7.0,14.0,58,0.00,,,-99.99,,2013-06-11 21:42:00,
2013-06-11 17:53:00,77.0,61.0,-100.00,WNW,285,6.0,18.0,56,0.00,,,-99.99,,2013-06-11 21:53:00,
2013-06-11 18:03:00,77.0,60.0,-100.00,WNW,290,9.0,16.0,57,0.00,,,-99.99,,2013-06-11 22:03:00,
2013-06-11 18:12:00,76.0,61.0,-100.00,West,265,5.0,12.0,59,0.00,,,-99.99,,2013-06-11 22:12:00,
2013-06-11 18:22:00,76.0,60.0,-100.00,West,270,10.0,15.0,57,0.00,,,-99.99,,2013-06-11 22:22:00,
2013-06-11 18:33:00,77.0,62.0,-100.00,WNW,290,6.0,14.0,59,0.00,,,-99.99,,2013-06-11 22:33:00,
2013-06-11 18:42:00,76.0,61.0,-100.00,WNW,300,7.0,16.0,59,0.00,,,-99.99,,2013-06-11 22:42:00,
2013-06-11 18:52:00,76.0,61.0,-100.00,WNW,285,5.0,12.0,59,0.00,,,-99.99,,2013-06-11 22:52:00,
2013-06-11 19:02:00,76.0,62.0,-100.00,West,260,7.0,12.0,60,0.00,,,-99.99,,2013-06-11 23:02:00,
2013-06-11 19:12:00,76.0,60.0,-100.00,West,265,8.0,14.0,58,0.00,,,-99.99,,2013-06-11 23:12:00,
2013-06-11 19:22:00,76.0,61.0,-100.00,WNW,285,5.0,11.0,58,0.00,,,-99.99,,2013-06-11 23:22:00,
2013-06-11 19:32:00,76.0,61.0,-100.00,West,280,7.0,12.0,59,0.00,,,-99.99,,2013-06-11 23:32:00,
2013-06-11 19:42:00,76.0,60.0,-100.00,West,280,6.0,11.0,58,0.00,,,-99.99,,2013-06-11 23:42:00,
2013-06-11 19:52:00,75.0,61.0,-100.00,West,270,5.0,9.0,61,0.00,,,-99.99,,2013-06-11 23:52:00,
2013-06-11 20:02:00,75.0,61.0,-100.00,WSW,255,4.0,10.0,61,0.00,,,-99.99,,2013-06-12 00:02:00,
2013-06-11 20:12:00,74.0,61.0,-100.00,WSW,245,4.0,5.0,63,0.00,,,-99.99,,2013-06-12 00:12:00,
2013-06-11 20:22:00,74.0,61.0,-100.00,WSW,250,5.0,6.0,63,0.00,,,-99.99,,2013-06-12 00:22:00,
2013-06-11 20:32:00,74.0,62.0,-100.00,WSW,250,5.0,7.0,65,0.00,,,-99.99,,2013-06-12 00:32:00,
2013-06-11 20:42:00,73.0,62.0,-100.00,SW,230,2.0,6.0,66,0.00,,,-99.99,,2013-06-12 00:42:00,
2013-06-11 20:52:00,73.0,62.0,-100.00,SW,235,2.0,4.0,68,0.00,,,-99.99,,2013-06-12 00:52:00,
2013-06-11 21:02:00,72.0,62.0,-100.00,WSW,245,4.0,6.0,69,0.00,,,-99.99,,2013-06-12 01:02:00,
2013-06-11 21:12:00,72.0,62.0,-100.00,SW,230,3.0,6.0,69,0.00,,,-99.99,,2013-06-12 01:12:00,
2013-06-11 21:22:00,72.0,62.0,-100.00,WSW,240,3.0,6.0,70,0.00,,,-99.99,,2013-06-12 01:22:00,
2013-06-11 21:32:00,72.0,62.0,-100.00,West,260,3.0,6.0,70,0.00,,,-99.99,,2013-06-12 01:32:00,
2013-06-11 21:42:00,72.0,62.0,-100.00,WSW,240,2.0,6.0,70,0.00,,,-99.99,,2013-06-12 01:42:00,
2013-06-11 21:52:00,72.0,62.0,-100.00,SW,220,2.0,6.0,70,0.00,,,-99.99,,2013-06-12 01:52:00,
2013-06-11 22:02:00,71.0,62.0,-100.00,SW,235,2.0,4.0,71,0.00,,,-99.99,,2013-06-12 02:02:00,
2013-06-11 22:12:00,71.0,62.0,-100.00,SW,215,2.0,4.0,73,0.00,,,-99.99,,2013-06-12 02:12:00,
2013-06-11 22:22:00,71.0,62.0,-100.00,WSW,250,2.0,4.0,73,0.00,,,-99.99,,2013-06-12 02:22:00,
2013-06-11 22:32:00,71.0,62.0,-100.00,SW,230,1.0,4.0,73,0.00,,,-99.99,,2013-06-12 02:32:00,
2013-06-11 22:42:00,70.0,62.0,-100.00,SW,215,0.0,1.0,74,0.00,,,-99.99,,2013-06-12 02:42:00,
2013-06-11 22:52:00,70.0,62.0,-100.00,SSW,210,0.0,1.0,75,0.00,,,-99.99,,2013-06-12 02:52:00,
2013-06-11 23:02:00,69.0,62.0,-100.00,SSW,195,1.0,3.0,77,0.00,,,-99.99,,2013-06-12 03:02:00,
2013-06-11 23:12:00,69.0,62.0,-100.00,South,170,2.0,4.0,78,0.00,,,-99.99,,2013-06-12 03:12:00,
2013-06-11 23:22:00,68.0,62.0,-100.00,South,170,1.0,3.0,80,0.00,,,-99.99,,2013-06-12 03:22:00,
2013-06-11 23:33:00,68.0,62.0,-100.00,South,170,0.0,2.0,80,0.00,,,-99.99,,2013-06-12 03:33:00,
2013-06-11 23:43:00,68.0,62.0,-100.00,SSE,165,1.0,2.0,80,0.00,,,-99.99,,2013-06-12 03:43:00,
2013-06-11 23:53:00,68.0,62.0,-100.00,South,175,1.0,3.0,79,0.00,,,-99.99,,2013-06-12 03:53:00,